CZ-3B DEB, 42459

Orbit data source: Space-Track

CZ-3B DEB, 42459 is space debris in HEO originally from a launch on Sat, 04 Sep 2010 UTC launched from the Xichang Space Center, China (XSC). Debris objects in space refer to the collection of defunct objects orbiting the Earth. Examples of debris include non-operational satellites, rocket bodies, and fragments generated from explosions, collisions, or faulty payload assembly.

Loading next visibility...
CZ-3B DEB details
Identifier
42459, 2010-042AA
Orbit
HEO
Last TLE update8 hours ago
Origin
Flag of CNCASC (CN / PRC)
ManufacturerCALT
MissionSpacecraft
Bus & MotorUnknown
MassUnknown
Launch date (UTC)
2010-09-04 (14 years ago)
Launch vehicleUnknown
Launch site
Xichang Space Center, China (XSC)
Object type
Payload
Rocket body
Debris
Shape & HBRUnknown
Radar Cross SectionMedium (>0.1 m² and <1 m²)

Expand to show TLE details & history

TLE from 8 hours ago
0 CZ-3B DEB
1 42459U 10042AA  24361.23905769 -.00000250  00000-0  00000-0 0  9996
2 42459  27.3608  61.2876 7250994  74.1980 349.2221  1.87004606 68567
Epoch: 2024-12-26T05:44Z
Definitive object data (Epoch: 2024-12-26T05:44:14.584Z)
Latitude
Longitude-119.94538°
Altitude4,614.269 km
Speed7.629 km/s
True Right ascension04h 05m 20s
True Declination0° 00' 00"
Sunlit
Object was in daylight at TLE epoch
Visualization TLE readout
Latitude-27.22169°
Longitude143.05337°
Altitude39,909.592 km
Speed1.703 km/s
Apparent Right ascension21h 58m 26s
Apparent Declination-29° 46' 15"
Sunlit
Object is in daylight
Visualization observer readout
Local Sidereal Time13:20:47
Azimuth92.322° ESE
Elevation-47.843°
Doppler factor1
Orbital elements
Apogee altitude41,635.694 km
Perigee altitude1,273.034 km
Semi-major axis27,832.501 km
Eccentricity0.7250994
Inclination27.3608°
RAAN61.2876°
Arg. of periapsis74.198°
True anomaly285.06302°
Mean anomaly349.2221°
Eccentric anomaly325.97582°
Mean motion0.46743 °/min
BSTARUnknown
Orbital period770.17 mins
Loading maneuver chart data...
Loading historical data...
Loading historical data...
Loading historical data...
Loading historical data...
Loading historical data...
Loading historical data...
Loading historical data...

CZ-3B DEB Visibility forecast

Observer location: undefined°, undefined

Span
Click to sort rows by Start time (UTC) header in descending order
Start Az.
Max El. time (UTC)
Max El. Az.
Max El.
End time (UTC)
End Az.
176 mins2024-12-26 19:42:01.023Z237.686° WSW2024-12-26 20:30:01.023Z217.249° SW15.653°2024-12-26 22:38:01.023Z216.577° SW
11 mins2024-12-27 07:35:01.023Z215.599° SW2024-12-27 07:41:01.023Z176.235° S21.429°2024-12-27 07:46:01.023Z120.941° SE
|